LAB24 Weather Reports


Display with metric or nautical units.
time (UTC)temp
F
wind
direction
speed
MPH
gust
MPH
rain 1hr
in
rain 24hr
in
rain mn
in
humidity
%
barometer
mb
20260507113027 71 146 1.0 6.0 0.00 0.07 0.06 57 1011.1
20260507111527 70 115 1.0 5.0 0.00 0.07 0.06 57 1011.0
20260507110015 71 143 2.0 6.0 0.00 0.07 0.06 56 1011.1
20260507104518 69 119 0.0 5.0 0.00 0.07 0.06 59 1011.2
20260507103029 69 109 0.0 4.0 0.00 0.07 0.06 61 1011.3
20260507101533 69 107 1.0 4.0 0.00 0.07 0.06 62 1011.4
20260507100026 69 129 2.0 4.0 0.00 0.07 0.06 63 1011.5
20260507094515 68 178 0.0 6.0 0.00 0.07 0.06 58 1011.5
20260507093020 68 92 0.0 7.0 0.00 0.07 0.06 58 1011.2
20260507091532 66 49 0.0 2.0 0.00 0.07 0.06 63 1011.1
20260507090025 67 71 0.0 4.0 0.00 0.07 0.06 65 1011.2
20260507084526 65 196 1.0 3.0 0.00 0.07 0.06 67 1011.3
20260507083017 64 59 0.0 2.0 0.00 0.07 0.06 69 1011.4
20260507081523 63 169 0.0 5.0 0.00 0.07 0.06 71 1011.4
20260507080016 62 182 0.0 2.0 0.00 0.07 0.06 72 1011.6
20260507080008 62 192 0.0 2.0 0.00 0.07 0.06 72 1011.6
20260507074509 61 53 0.0 3.0 0.00 0.07 0.06 75 1011.6
20260507073003 60 350 1.0 3.0 0.00 0.07 0.06 76 1011.7
20260507071506 59 72 0.0 4.0 0.00 0.08 0.06 80 1011.5
20260507070009 58 323 0.0 4.0 0.00 0.08 0.06 83 1011.3
20260507064514 56 131 0.0 4.0 0.00 0.08 0.06 85 1011.1
20260507063013 55 155 0.0 2.0 0.00 0.09 0.06 90 1010.9
20260507061504 53 247 0.0 1.0 0.00 0.12 0.06 90 1010.8
20260507060012 53 267 0.0 1.0 0.00 0.14 0.06 90 1011.1
20260507054508 53 187 0.0 2.0 0.00 0.14 0.06 91 1011.1
20260507053012 52 205 0.0 2.0 0.00 0.14 0.06 91 1011.2
20260507051520 52 254 0.0 1.0 0.00 0.14 0.06 91 1011.1
20260507050010 52 279 0.0 0.0 0.01 0.15 0.06 91 1011.0
20260507044508 51 279 0.0 1.0 0.01 0.15 0.06 91 1010.9
20260507043010 51 290 0.0 2.0 0.01 0.15 0.06 90 1010.8
20260507041516 51 209 0.0 3.0 0.01 0.15 0.06 91 1010.7
20260507040022 52 275 0.0 2.0 0.00 0.14 0.05 90 1010.6
20260507034504 52 282 0.0 2.0 0.00 0.14 0.05 89 1010.7
20260507033007 52 266 0.0 2.0 0.00 0.14 0.05 89 1010.7
20260507031513 52 288 0.0 2.0 0.00 0.14 0.05 89 1010.6
20260507030019 52 277 0.0 3.0 0.00 0.14 0.05 89 1010.6
20260507024525 51 250 0.0 2.0 0.00 0.14 0.05 89 1010.6
20260507023006 51 286 1.0 3.0 0.01 0.15 0.05 88 1010.6
20260507021510 51 284 1.0 3.0 0.01 0.16 0.05 88 1010.5
20260507020023 51 292 1.0 3.0 0.02 0.18 0.05 89 1010.6
20260507014522 51 193 0.0 2.0 0.02 0.19 0.05 90 1010.7
20260507013033 51 327 1.0 2.0 0.02 0.20 0.04 90 1010.8
20260507011523 52 281 1.0 3.0 0.02 0.21 0.04 90 1010.7
20260507010012 52 188 0.0 1.0 0.02 0.20 0.03 90 1010.8
20260507004518 53 135 0.0 1.0 0.02 0.20 0.03 91 1011.0
20260507003022 53 135 0.0 1.0 0.01 0.19 0.02 91 1010.9
20260507001533 53 135 0.0 0.0 0.02 0.19 0.02 91 1011.0
20260507000028 53 135 0.0 1.0 0.01 0.18 0.01 90 1011.0
20260506234514 53 135 0.0 2.0 0.01 0.18 0.01 89 1011.1
20260506233021 53 104 0.0 1.0 0.01 0.18 0.01 88 1011.2
20260506231524 53 96 0.0 3.0 0.00 0.17 0.00 88 1011.3
20260506230009 53 54 0.0 2.0 0.00 0.17 0.00 86 1011.5
20260506224512 53 290 0.0 1.0 0.01 0.17 0.00 86 1011.6
20260506223020 54 113 0.0 1.0 0.01 0.17 0.00 86 1011.6
20260506221504 54 113 0.0 1.0 0.01 0.17 0.00 85 1011.7
20260506220008 54 113 0.0 1.0 0.01 0.17 0.00 84 1011.7
20260506214509 54 107 0.0 1.0 0.00 0.16 0.16 82 1011.6
20260506213016 55 350 0.0 2.0 0.00 0.16 0.16 80 1011.7
20260506211524 55 301 0.0 2.0 0.00 0.16 0.16 80 1011.7
20260506210009 55 279 0.0 2.0 0.00 0.16 0.16 77 1011.8
20260506204510 56 284 0.0 1.0 0.00 0.16 0.16 75 1012.1
20260506203013 56 155 0.0 6.0 0.00 0.16 0.16 73 1012.1
20260506201519 56 360 0.0 3.0 0.00 0.16 0.16 73 1011.9
20260506200024 56 32 0.0 3.0 0.00 0.16 0.16 72 1012.0
20260506194506 56 11 1.0 6.0 0.00 0.16 0.16 71 1011.9
20260506193014 57 327 1.0 3.0 0.00 0.16 0.16 69 1011.7
20260506191518 57 344 1.0 3.0 0.00 0.16 0.16 69 1011.5
20260506190021 57 164 0.0 1.0 0.00 0.16 0.16 72 1011.4
20260506184523 57 109 0.0 1.0 0.00 0.16 0.16 72 1011.3
20260506183011 58 53 0.0 3.0 0.00 0.16 0.16 72 1011.1
20260506181514 58 209 0.0 2.0 0.00 0.16 0.16 71 1010.9
20260506180026 58 5 0.0 1.0 0.00 0.16 0.16 73 1010.9
20260506174524 59 37 0.0 1.0 0.00 0.16 0.16 70 1010.9
20260506173031 59 79 0.0 1.0 0.00 0.16 0.16 68 1010.8
20260506171514 60 111 0.0 1.0 0.00 0.16 0.16 66 1010.8
20260506170016 60 61 0.0 2.0 0.00 0.16 0.16 66 1010.7
20260506164521 61 132 0.0 3.0 0.00 0.16 0.16 64 1010.7
20260506163030 61 305 0.0 3.0 0.00 0.16 0.16 63 1010.7
20260506161524 62 323 0.0 2.0 0.00 0.16 0.16 65 1010.7
20260506160011 62 162 0.0 2.0 0.00 0.16 0.16 65 1010.9
20260506154503 62 179 1.0 2.0 0.00 0.16 0.16 64 1010.9
20260506153004 62 181 0.0 2.0 0.00 0.16 0.16 64 1011.0
20260506151506 62 157 0.0 3.0 0.00 0.16 0.16 58 1011.2
20260506150011 62 105 0.0 2.0 0.00 0.16 0.16 56 1011.0
20260506144513 63 5 0.0 3.0 0.00 0.16 0.16 57 1011.1
20260506143003 63 295 0.0 3.0 0.00 0.16 0.16 58 1011.2
20260506141506 64 316 0.0 4.0 0.00 0.16 0.16 60 1011.1
20260506140008 64 272 0.0 3.0 0.00 0.16 0.16 59 1011.1
20260506134513 65 327 0.0 4.0 0.00 0.16 0.16 57 1011.0
20260506133019 66 173 0.0 3.0 0.00 0.16 0.16 58 1011.0
20260506131506 67 111 1.0 6.0 0.00 0.16 0.16 55 1011.1
20260506130005 68 92 0.0 5.0 0.00 0.16 0.16 53 1011.1
20260506124510 68 159 0.0 8.0 0.00 0.16 0.16 56 1011.3
20260506123014 66 120 1.0 3.0 0.00 0.16 0.16 56 1011.3
20260506121520 66 283 0.0 6.0 0.00 0.16 0.16 60 1011.2
20260506120006 64 83 1.0 5.0 0.00 0.16 0.16 60 1011.3
20260506114508 65 14 0.0 4.0 0.00 0.16 0.16 61 1011.3